Location: Braunsdorf
(50.7357°N, 11.9136°E)
Time: 06:05:14
(UTC+00:00)

Cosmos 2221 - Pass Details

Date: 17 February 2020
Orbit: 593 x 615 km, 82.5° (Epoch: 28 March)

Event Time Altitude Azimuth Distance (km) Brightness Sun altitude
Rises 04:15:33 0° 181° (S) 2,823 5.9 -20.6°
Reaches altitude 10° 04:17:45 10° 179° (S) 1,928 5.0 -20.2°
Maximum altitude 04:21:58 67° 97° (E) 654 2.8 -19.6°
Drops below altitude 10° 04:26:16 10° 15° (NNE) 1,955 5.3 -18.9°
Sets 04:28:30 0° 13° (NNE) 2,867 6.2 -18.5°
